5117380011,1993,6,3,20,0.089
5117380011,1993,6,3,21,0.085
5117380011,1993,6,3,22,0.086
5117380011,1993,6,3,23,0.084
5117380011,1993,6,3,24,0.086
5117380011,1993,6,4,1,0.081
5117380011,1993,6,4,2,0.081
5117380011,1993,6,4,3,0.074
5117380011,1993,6,4,4,0.073
5117380011,1993,6,4,5,0.073
5117380011,1993,6,4,6,0.072
5117380011,1993,6,4,7,0.071
5117380011,1993,6,4,8,0.069
5117380011,1993,6,4,9,0.064
5117380011,1993,6,4,10,0.061
5117380011,1993,6,4,11,0.05
5117380011,1993,6,4,12,0.058
5117380011,1993,6,4,13,0.053
5117380011,1993,6,4,14,0.054
5117380011,1993,6,4,15,0.056
5117380011,1993,6,15,15,0.059
5117380011,1993,6,15,16,0.063
5117380011,1993,6,15,17,0.062
5117380011,1993,6,15,18,0.062
5117380011,1993,6,15,19,0.06
5117380011,1993,6,15,20,0.059
5117380011,1993,6,15,21,0.059
5117380011,1993,6,15,22,0.059
5117380011,1993,6,15,23,0.059
5117380011,1993,6,15,24,0.059
5117380011,1993,6,16,1,0.06
5117380011,1993,6,16,2,0.061
5117380011,1993,6,16,3,0.063
5117380011,1993,6,16,4,0.064
5117380011,1993,6,16,5,0.064
5117380011,1993,6,16,6,0.064
5117380011,1993,6,16,7,0.062
5117380011,1993,6,16,8,0.06
5117380011,1993,6,16,9,0.058
5117380011,1993,6,16,10,0.056
5117380011,1993,6,16,11,0.054
5117380011,1993,6,16,12,0.055
5117380011,1993,6,16,13,0.055
5117380011,1993,6,16,14,0.055
5117380011,1993,6,16,15,0.055
5117380011,1993,6,16,16,0.055
5117380011,1993,6,16,17,0.056
5117380011,1993,6,16,18,0.056
5117380011,1993,6,16,19,0.064
5117380011,1993,6,16,20,0.063
5117380011,1993,6,16,21,0.07
5117380011,1993,6,16,22,0.067
5117380011,1993,6,16,23,0.07
5117380011,1993,6,16,24,0.073
5117380011,1993,6,17,1,0.079
5117380011,1993,6,17,2,0.088
5117380011,1993,6,17,3,0.08
5117380011,1993,6,17,4,0.077
5117380011,1993,6,17,5,0.072
5117380011,1993,6,17,6,0.069
5117380011,1993,6,17,7,0.068
5117380011,1993,6,17,8,0.067
5117380011,1993,6,17,9,0.065
5117380011,1993,6,17,10,0.063
5117380011,1993,6,17,11,0.064
5117380011,1993,6,17,12,0.069
5117380011,1993,6,17,13,0.072
5117380011,1993,6,17,14,0.077
5117380011,1993,6,17,15,0.078
5117380011,1993,6,17,16,0.076
5117380011,1993,6,17,17,0.072
5117380011,1993,6,17,18,0.066
5117380011,1993,6,17,19,0.073
5117380011,1993,6,17,20,0.071
5117380011,1993,6,17,21,0.07
5117380011,1993,6,17,22,0.068
5117380011,1993,6,17,23,0.073
5117380011,1993,6,17,24,0.073
5117380011,1993,6,18,1,0.071
5117380011,1993,6,18,2,0.069
5117380011,1993,6,18,3,0.066
5117380011,1993,6,18,4,0.065
5117380011,1993,6,18,5,0.065
5117380011,1993,6,18,6,0.065
5117380011,1993,6,18,7,0.072
5117380011,1993,6,18,8,0.065
5117380011,1993,6,18,9,0.026
5117380011,1993,6,18,10,0.067
5117380011,1993,6,18,11,0.07
5117380011,1993,6,18,12,0.069
5117380011,1993,6,18,13,0.066
5117380011,1993,6,18,14,0.071
5117380011,1993,6,18,15,0.074
5117380011,1993,6,18,16,0.068
5117380011,1993,6,18,17,0.066
5117380011,1993,6,18,18,0.065
5117380011,1993,6,18,19,0.069
5117380011,1993,6,18,20,0.062
5117380011,1993,6,18,21,0.061
5117380011,1993,6,18,22,0.069
5117380011,1993,6,18,23,0.076
5117380011,1993,6,18,24,0.08
5117380011,1993,6,19,1,0.071
5117380011,1993,6,19,2,0.07
5117380011,1993,6,19,3,0.067
5117380011,1993,6,19,4,0.066
5117380011,1993,6,19,5,0.065
5117380011,1993,6,19,6,0.066
5117380011,1993,6,19,7,0.07
5117380011,1993,6,19,8,0.066
5117380011,1993,6,19,9,0.065
5117380011,1993,6,19,10,0.061
5117380011,1993,6,19,11,0.062
5117380011,1993,6,19,12,0.062
5117380011,1993,6,19,13,0.06
5117380011,1993,6,19,14,0.059
5117380011,1993,6,19,15,0.058
5117380011,1993,6,19,16,0.057
5117380011,1993,6,19,17,0.062
5117380011,1993,6,19,18,0.062
5117380011,1993,6,19,19,0.062
5117380011,1993,6,19,20,0.065
5117380011,1993,6,19,21,0.068
5117380011,1993,6,19,22,0.075
5117380011,1993,6,19,23,0.076
5117380011,1993,6,19,24,0.074
5117380011,1993,6,20,1,0.074
5117380011,1993,6,20,2,0.074
5117380011,1993,6,20,3,0.072
5117380011,1993,6,20,4,0.069
5117380011,1993,6,20,5,0.065
5117380011,1993,6,20,6,0.065
5117380011,1993,6,20,7,0.067
5117380011,1993,6,20,8,0.068
5117380011,1993,6,20,9,0.065
5117380011,1993,6,20,10,0.065
5117380011,1993,6,20,11,0.064
5117380011,1993,6,20,12,0.06
5117380011,1993,6,20,13,0.057
5117380011,1993,6,20,14,0.057
5117380011,1993,6,20,15,0.055
5117380011,1993,6,20,16,0.052
5117380011,1993,6,20,17,0.053
5117380011,1993,6,20,18,0.055
5117380011,1993,6,20,19,0.055
5117380011,1993,6,20,20,0.054
5117380011,1993,6,20,21,0.053
5117380011,1993,6,20,22,0.052
5117380011,1993,6,20,23,0.063
5117380011,1993,6,20,24,0.068
5117380011,1993,6,21,1,0.069
5117380011,1993,6,21,2,0.06
5117380011,1993,6,21,3,0.066
5117380011,1993,6,21,4,0.063
5117380011,1993,6,21,5,0.056
5117380011,1993,6,21,6,0.058
5117380011,1993,6,21,7,0.054
5117380011,1993,6,21,8,0.049
5117380011,1993,6,21,9,0.048
5117380011,1993,6,23,19,0.071
5117380011,1993,6,23,20,0.084
5117380011,1993,6,23,21,0.088
5117380011,1993,6,23,22,0.087
5117380011,1993,6,23,23,0.09
5117380011,1993,6,23,24,0.094
5117380011,1993,6,24,1,0.092
5117380011,1993,6,24,2,0.091
5117380011,1993,6,24,3,0.081
5117380011,1993,6,24,4,0.076
5117380011,1993,6,24,5,0.075
5117380011,1993,6,24,6,0.075
5117380011,1993,6,24,7,0.079
5117380011,1993,6,24,8,0.079
5117380011,1993,6,24,9,0.072
5117380011,1993,6,24,10,0.073
5117380011,1993,6,24,11,0.068
5117380011,1993,6,24,14,0.068
5117380011,1993,6,24,16,0.067
5117380011,1993,6,24,17,0.066
5117380011,1993,6,24,18,0.067
5117380011,1993,6,24,19,0.072
5117380011,1993,6,24,20,0.08
5117380011,1993,6,24,21,0.079
5117380011,1993,6,24,22,0.077
5117380011,1993,6,24,23,0.078
5117380011,1993,6,24,24,0.072
5117380011,1993,6,25,1,0.072
5117380011,1993,6,25,2,0.072
5117380011,1993,6,25,3,0.072
5117380011,1993,6,25,4,0.075
5117380011,1993,6,25,5,0.08
5117380011,1993,6,25,6,0.077
5117380011,1993,6,25,7,0.075
5117380011,1993,6,25,8,0.072
5117380011,1993,6,25,9,0.063
5117380011,1993,6,25,10,0.047
5117380011,1993,6,25,11,0.068
5117380011,1993,6,25,12,0.069
5117380011,1993,6,25,13,0.068
5117380011,1993,6,25,14,0.069
5117380011,1993,6,25,16,0.071
5117380011,1993,6,25,17,0.078
5117380011,1993,6,25,18,0.086
5117380011,1993,6,25,19,0.094
5117380011,1993,6,25,20,0.087
5117380011,1993,6,25,21,0.085
5117380011,1993,6,25,22,0.081
5117380011,1993,6,25,23,0.077
5117380011,1993,6,25,24,0.076
5117380011,1993,6,26,1,0.069
5117380011,1993,6,26,2,0.067
5117380011,1993,6,26,3,0.061
5117380011,1993,6,26,4,0.06
5117380011,1993,6,26,5,0.06
5117380011,1993,6,26,6,0.059
5117380011,1993,6,26,7,0.059
5117380011,1993,6,26,8,0.057
5117380011,1993,6,26,9,0.057
5117380011,1993,6,26,10,0.061
5117380011,1993,6,26,11,0.056
5117380011,1993,6,26,12,0.046
5117380011,1993,6,26,13,0.041
5117380011,1993,6,26,15,0.043
5117380011,1993,6,26,16,0.046
5117380011,1993,6,26,17,0.046
5117380011,1993,6,26,18,0.043
5117380011,1993,6,26,19,0.04
5117380011,1993,6,26,20,0.042
5117380011,1993,6,26,21,0.043
5117380011,1993,6,26,22,0.044
5117380011,1993,6,26,23,0.044
5117380011,1993,6,26,24,0.047
5117380011,1993,6,27,1,0.047
5117380011,1993,6,27,2,0.048
5117380011,1993,6,27,3,0.048
5117380011,1993,6,27,4,0.048
5117380011,1993,6,27,5,0.049
5117380011,1993,6,27,6,0.05
5117380011,1993,6,27,7,0.05
5117380011,1993,6,27,8,0.053
5117380011,1993,6,27,9,0.051
5117380011,1993,6,27,10,0.051
5117380011,1993,6,27,11,0.05
5117380011,1993,6,27,12,0.052
5117380011,1993,6,27,13,0.052
5117380011,1993,6,27,14,0.053
5117380011,1993,6,27,15,0.054
5117380011,1993,6,27,16,0.055
5117380011,1993,6,27,17,0.055
5117380011,1993,6,27,18,0.057
5117380011,1993,6,27,19,0.057
5117380011,1993,6,27,20,0.055
5117380011,1993,6,27,21,0.055
5117380011,1993,6,27,22,0.057
5117380011,1993,6,27,23,0.057
5117380011,1993,6,27,24,0.058
5117380011,1993,6,28,1,0.057
5117380011,1993,6,28,2,0.056
5117380011,1993,6,28,3,0.056
5117380011,1993,6,28,4,0.055
5117380011,1993,6,28,5,0.052
5117380011,1993,6,28,6,0.051
5117380011,1993,6,28,7,0.044
5117380011,1993,6,28,8,0.043
5117380011,1993,6,28,9,0.052
5117380011,1993,6,28,10,0.051
5117380011,1993,6,28,11,0.05
5117380011,1993,6,28,12,0.053
5117380011,1993,6,28,13,0.052
5117380011,1993,6,28,14,0.052
5117380011,1993,6,28,15,0.059
5117380011,1993,6,28,16,0.065
5117380011,1993,6,28,17,0.066
5117380011,1993,6,28,18,0.064
5117380011,1993,6,28,19,0.067
5117380011,1993,6,28,20,0.078
5117380011,1993,6,28,21,0.065
5117380011,1993,6,28,22,0.066
5117380011,1993,6,28,23,0.067
5117380011,1993,6,28,24,0.066
5117380011,1993,6,29,1,0.062
5117380011,1993,6,29,2,0.056
5117380011,1993,6,29,3,0.059
5117380011,1993,6,29,4,0.054
5117380011,1993,6,29,5,0.05
5117380011,1993,6,29,6,0.046
5117380011,1993,6,29,7,0.042
5117380011,1993,6,29,8,0.045
5117380011,1993,6,29,9,0.05
5117380011,1993,6,29,10,0.042
5117380011,1993,6,29,11,0.048
5117380011,1993,6,29,12,0.05
5117380011,1993,6,29,13,0.053
5117380011,1993,6,29,14,0.055
5117380011,1993,6,29,15,0.055
5117380011,1993,6,29,16,0.051
5117380011,1993,6,29,17,0.047
5117380011,1993,6,29,18,0.05
5117380011,1993,6,29,19,0.053
5117380011,1993,6,29,20,0.05
5117380011,1993,6,29,21,0.052
5117380011,1993,6,29,22,0.05
5117380011,1993,6,29,23,0.052
5117380011,1993,6,29,24,0.056
5117380011,1993,6,30,1,0.054
5117380011,1993,6,30,2,0.055
5117380011,1993,6,30,3,0.053
5117380011,1993,6,30,4,0.052
5117380011,1993,6,30,5,0.051
5117380011,1993,6,30,6,0.051
5117380011,1993,6,30,7,0.049
5117380011,1993,6,30,8,0.049
5117380011,1993,6,30,9,0.05
5117380011,1993,6,30,10,0.05
5117380011,1993,6,30,11,0.053
5117380011,1993,6,30,12,0.054
5117380011,1993,6,30,13,0.058
5117380011,1993,6,30,14,0.063
5117380011,1993,6,30,15,0.064
5117380011,1993,6,30,16,0.061
5117380011,1993,6,30,17,0.058
5117380011,1993,6,30,18,0.06
5117380011,1993,6,30,19,0.07
5117380011,1993,6,30,20,0.076
5117380011,1993,6,30,21,0.076
5117380011,1993,6,30,22,0.07
5117380011,1993,6,30,23,0.07
5117380011,1993,6,30,24,0.066
5117380011,1993,7,1,1,0.062
5117380011,1993,7,1,2,0.063
5117380011,1993,7,1,3,0.06
5117380011,1993,7,1,4,0.058
5117380011,1993,7,1,5,0.054
5117380011,1993,7,1,6,0.049
5117380011,1993,7,1,7,0.047
5117380011,1993,7,1,8,0.047
5117380011,1993,7,1,9,0.048
5117380011,1993,7,1,10,0.051
5117380011,1993,7,1,11,0.051
5117380011,1993,7,1,12,0.05
5117380011,1993,7,1,13,0.049
5117380011,1993,7,1,14,0.051
5117380011,1993,7,1,15,0.051
5117380011,1993,7,1,16,0.057
5117380011,1993,7,1,17,0.055
5117380011,1993,7,1,18,0.057
5117380011,1993,7,1,19,0.06
5117380011,1993,7,1,20,0.062
5117380011,1993,7,1,21,0.05
5117380011,1993,7,1,22,0.054
5117380011,1993,7,1,23,0.054
5117380011,1993,7,1,24,0.06
5117380011,1993,7,2,1,0.057
5117380011,1993,7,2,2,0.055
5117380011,1993,7,2,3,0.051
5117380011,1993,7,2,4,0.05
5117380011,1993,7,2,5,0.041
5117380011,1993,7,2,6,0.039
5117380011,1993,7,2,7,0.04
5117380011,1993,7,2,8,0.04
5117380011,1993,7,2,9,0.044
5117380011,1993,7,2,10,0.047
5117380011,1993,7,2,11,0.049
5117380011,1993,7,2,12,0.052
5117380011,1993,7,2,13,0.057
5117380011,1993,7,2,14,0.054
5117380011,1993,7,2,15,0.06
5117380011,1993,7,2,16,0.059
5117380011,1993,7,2,17,0.062
5117380011,1993,7,2,18,0.063
5117380011,1993,7,2,19,0.065
5117380011,1993,7,2,20,0.066
5117380011,1993,7,2,21,0.067
5117380011,1993,7,2,22,0.071
5117380011,1993,7,2,23,0.068
5117380011,1993,7,2,24,0.071
5117380011,1993,7,3,1,0.077
5117380011,1993,7,3,2,0.069
5117380011,1993,7,3,3,0.057
5117380011,1993,7,3,4,0.053
5117380011,1993,7,3,5,0.055
5117380011,1993,7,3,6,0.061
5117380011,1993,7,3,7,0.057
5117380011,1993,7,3,8,0.05
5117380011,1993,7,3,9,0.047
5117380011,1993,7,3,10,0.046
5117380011,1993,7,3,11,0.05
5117380011,1993,7,3,12,0.056
5117380011,1993,7,3,13,0.057
5117380011,1993,7,3,14,0.064
5117380011,1993,7,3,15,0.069
5117380011,1993,7,3,16,0.067
5117380011,1993,7,3,17,0.065
5117380011,1993,7,3,18,0.068
5117380011,1993,7,3,19,0.07
5117380011,1993,7,3,20,0.071
5117380011,1993,7,3,21,0.073
5117380011,1993,7,3,22,0.07
5117380011,1993,7,3,23,0.062
5117380011,1993,7,3,24,0.061
5117380011,1993,7,4,1,0.064
5117380011,1993,7,4,2,0.061
5117380011,1993,7,4,3,0.059
5117380011,1993,7,4,4,0.06
5117380011,1993,7,4,5,0.065
5117380011,1993,7,4,6,0.064
5117380011,1993,7,4,7,0.06
5117380011,1993,7,4,8,0.057
5117380011,1993,7,4,9,0.058
5117380011,1993,7,4,10,0.054
5117380011,1993,7,4,11,0.051
5117380011,1993,7,4,12,0.052
5117380011,1993,7,4,13,0.059
5117380011,1993,7,4,14,0.062
5117380011,1993,7,4,15,0.061
5117380011,1993,7,4,16,0.06
5117380011,1993,7,4,17,0.062
5117380011,1993,7,4,18,0.075
5117380011,1993,7,4,19,0.078
5117380011,1993,7,4,20,0.076
5117380011,1993,7,4,21,0.074
5117380011,1993,7,4,22,0.07
5117380011,1993,7,4,23,0.068
5117380011,1993,7,4,24,0.062
5117380011,1993,7,5,1,0.064
5117380011,1993,7,5,2,0.065
5117380011,1993,7,5,3,0.061
5117380011,1993,7,5,4,0.056
5117380011,1993,7,5,5,0.06
5117380011,1993,7,5,6,0.063
5117380011,1993,7,5,7,0.064
5117380011,1993,7,5,8,0.061
5117380011,1993,7,5,9,0.059
5117380011,1993,7,5,10,0.053
5117380011,1993,7,5,11,0.051
5117380011,1993,7,5,12,0.054
5117380011,1993,7,5,13,0.054
5117380011,1993,7,5,14,0.056
5117380011,1993,7,5,15,0.055
5117380011,1993,7,5,16,0.054
5117380011,1993,7,5,17,0.053
5117380011,1993,7,5,18,0.051
5117380011,1993,7,5,19,0.057
5117380011,1993,7,5,20,0.064
5117380011,1993,7,5,21,0.057
5117380011,1993,7,5,22,0.056
5117380011,1993,7,5,23,0.06
5117380011,1993,7,5,24,0.062
5117380011,1993,7,6,1,0.06
5117380011,1993,7,6,2,0.057
5117380011,1993,7,6,3,0.051
5117380011,1993,7,6,4,0.05
5117380011,1993,7,6,6,0.047
5117380011,1993,7,6,7,0.042
5117380011,1993,7,6,8,0.039
5117380011,1993,7,6,9,0.038
5117380011,1993,7,6,10,0.037
5117380011,1993,7,6,11,0.04
5117380011,1993,7,6,12,0.043
5117380011,1993,7,6,13,0.038
5117380011,1993,7,6,14,0.044
5117380011,1993,7,6,15,0.048
5117380011,1993,7,6,16,0.053
5117380011,1993,7,6,17,0.056
5117380011,1993,7,6,18,0.062
5117380011,1993,7,6,19,0.066
5117380011,1993,7,6,20,0.072
5117380011,1993,7,6,21,0.07
5117380011,1993,7,6,22,0.069
5117380011,1993,7,6,23,0.068
5117380011,1993,7,6,24,0.071
5117380011,1993,7,7,1,0.069
5117380011,1993,7,7,2,0.058
5117380011,1993,7,7,3,0.061
5117380011,1993,7,7,4,0.056
5117380011,1993,7,7,5,0.052
5117380011,1993,7,7,6,0.046
5117380011,1993,7,7,7,0.046
5117380011,1993,7,7,8,0.04
5117380011,1993,7,7,9,0.041
5117380011,1993,7,7,10,0.045
5117380011,1993,7,7,11,0.045
5117380011,1993,7,7,12,0.045
5117380011,1993,7,7,13,0.047
5117380011,1993,7,7,14,0.048
5117380011,1993,7,7,15,0.05
5117380011,1993,7,7,16,0.052
5117380011,1993,7,7,17,0.052
5117380011,1993,7,7,18,0.055
5117380011,1993,7,7,19,0.068
5117380011,1993,7,7,20,0.065
5117380011,1993,7,7,21,0.069
5117380011,1993,7,7,22,0.077
5117380011,1993,7,7,23,0.087
5117380011,1993,7,7,24,0.065
5117380011,1993,7,8,1,0.059
5117380011,1993,7,8,2,0.038
5117380011,1993,7,8,3,0.066
5117380011,1993,7,8,4,0.065
5117380011,1993,7,8,5,0.057
5117380011,1993,7,8,6,0.056
5117380011,1993,7,8,7,0.049
5117380011,1993,7,8,8,0.051
5117380011,1993,7,8,9,0.053
5117380011,1993,7,8,10,0.05
5117380011,1993,7,8,11,0.048
5117380011,1993,7,8,12,0.048
5117380011,1993,7,8,13,0.047
5117380011,1993,7,8,14,0.049
5117380011,1993,7,8,15,0.054
5117380011,1993,7,8,16,0.059
5117380011,1993,7,8,17,0.063
5117380011,1993,7,8,18,0.065
5117380011,1993,7,8,19,0.069
5117380011,1993,7,8,20,0.06
5117380011,1993,7,8,21,0.055
5117380011,1993,7,8,22,0.053
5117380011,1993,7,8,23,0.051
5117380011,1993,7,8,24,0.054
5117380011,1993,7,9,1,0.071
5117380011,1993,7,9,2,0.091
5117380011,1993,7,9,3,0.089
5117380011,1993,7,9,4,0.083
5117380011,1993,7,9,5,0.07
5117380011,1993,7,9,6,0.068
5117380011,1993,7,9,7,0.06
5117380011,1993,7,9,8,0.057
5117380011,1993,7,9,9,0.061
5117380011,1993,7,9,10,0.064
5117380011,1993,7,9,11,0.06
5117380011,1993,7,9,12,0.065
5117380011,1993,7,9,13,0.07
5117380011,1993,7,9,14,0.075
5117380011,1993,7,9,15,0.067
5117380011,1993,7,9,16,0.065
5117380011,1993,7,9,17,0.068
5117380011,1993,7,9,18,0.075
5117380011,1993,7,9,19,0.086
5117380011,1993,7,9,20,0.086
5117380011,1993,7,9,21,0.078
5117380011,1993,7,9,22,0.079
5117380011,1993,7,9,23,0.074
5117380011,1993,7,9,24,0.071
5117380011,1993,7,10,1,0.069
5117380011,1993,7,10,2,0.069
5117380011,1993,7,10,3,0.07
5117380011,1993,7,10,4,0.071
5117380011,1993,7,10,5,0.067
5117380011,1993,7,10,6,0.067
5117380011,1993,7,10,7,0.067
5117380011,1993,7,10,8,0.065
5117380011,1993,7,10,9,0.066
5117380011,1993,7,10,10,0.06
5117380011,1993,7,10,11,0.06
5117380011,1993,7,10,12,0.059
5117380011,1993,7,10,13,0.062
5117380011,1993,7,10,14,0.064
5117380011,1993,7,10,15,0.071
5117380011,1993,7,10,16,0.078
5117380011,1993,7,10,17,0.083
5117380011,1993,7,10,18,0.089
5117380011,1993,7,10,19,0.09
5117380011,1993,7,10,20,0.081
5117380011,1993,7,10,21,0.071
5117380011,1993,7,10,22,0.079
5117380011,1993,7,10,23,0.073
5117380011,1993,7,10,24,0.08
5117380011,1993,7,11,1,0.076
5117380011,1993,7,11,2,0.082
5117380011,1993,7,11,3,0.074
5117380011,1993,7,11,4,0.065
5117380011,1993,7,11,5,0.06
5117380011,1993,7,11,6,0.062
5117380011,1993,7,11,7,0.055
5117380011,1993,7,11,8,0.051
5117380011,1993,7,11,9,0.059
5117380011,1993,7,11,10,0.063
5117380011,1993,7,11,11,0.067
5117380011,1993,7,11,12,0.066
5117380011,1993,7,11,13,0.068
5117380011,1993,7,11,14,0.068
5117380011,1993,7,11,15,0.073
5117380011,1993,7,11,16,0.074
5117380011,1993,7,11,18,0.074
5117380011,1993,7,11,19,0.059
5117380011,1993,7,11,20,0.056
5117380011,1993,7,11,21,0.056
5117380011,1993,7,11,22,0.053
5117380011,1993,7,11,23,0.054
5117380011,1993,7,11,24,0.049
5117380011,1993,7,12,1,0.047
5117380011,1993,7,12,2,0.048
5117380011,1993,7,12,3,0.046
5117380011,1993,7,12,4,0.042
5117380011,1993,7,12,5,0.04
5117380011,1993,7,12,6,0.039
5117380011,1993,7,12,7,0.039
5117380011,1993,7,12,8,0.039
5117380011,1993,7,12,9,0.043
5117380011,1993,7,12,10,0.047
5117380011,1993,7,12,11,0.054
5117380011,1993,7,12,12,0.061
5117380011,1993,7,12,13,0.064
5117380011,1993,7,12,14,0.067
5117380011,1993,7,12,15,0.062
5117380011,1993,7,12,16,0.058
5117380011,1993,7,12,17,0.06
5117380011,1993,7,12,18,0.061
5117380011,1993,7,12,19,0.061
5117380011,1993,7,12,20,0.061
5117380011,1993,7,12,21,0.061
5117380011,1993,7,12,22,0.06
5117380011,1993,7,12,23,0.056
5117380011,1993,7,12,24,0.055
5117380011,1993,7,13,1,0.06
5117380011,1993,7,13,2,0.059
5117380011,1993,7,13,3,0.06
5117380011,1993,7,13,4,0.057
5117380011,1993,7,13,5,0.056
5117380011,1993,7,13,6,0.056
5117380011,1993,7,13,7,0.055
5117380011,1993,7,13,8,0.051
5117380011,1993,7,13,9,0.051
5117380011,1993,7,13,10,0.053
5117380011,1993,7,13,11,0.055
5117380011,1993,7,13,13,0.057
5117380011,1993,7,13,14,0.056
5117380011,1993,7,13,15,0.058
5117380011,1993,7,13,16,0.055
5117380011,1993,7,13,18,0.058
5117380011,1993,7,13,19,0.064
5117380011,1993,7,13,20,0.065
5117380011,1993,7,13,21,0.065
5117380011,1993,7,13,22,0.071
5117380011,1993,7,13,23,0.078
5117380011,1993,7,13,24,0.085
5117380011,1993,7,14,1,0.071
5117380011,1993,7,14,2,0.059
5117380011,1993,7,14,3,0.057
5117380011,1993,7,14,4,0.061
5117380011,1993,7,14,5,0.061
5117380011,1993,7,14,6,0.063
5117380011,1993,7,14,7,0.065
5117380011,1993,7,14,8,0.062
5117380011,1993,7,14,9,0.06
5117380011,1993,7,14,10,0.061
5117380011,1993,7,14,12,0.045
5117380011,1993,7,14,13,0.057
5117380011,1993,7,14,14,0.061
5117380011,1993,7,14,15,0.063
5117380011,1993,7,14,16,0.062
5117380011,1993,7,14,17,0.06
5117380011,1993,7,14,18,0.06
5117380011,1993,7,14,19,0.069
5117380011,1993,7,14,20,0.067
5117380011,1993,7,14,21,0.061
5117380011,1993,7,14,22,0.062
5117380011,1993,7,14,23,0.062
5117380011,1993,7,14,24,0.059
5117380011,1993,7,15,1,0.06
5117380011,1993,7,15,2,0.059
5117380011,1993,7,15,3,0.058
5117380011,1993,7,15,4,0.059
5117380011,1993,7,15,5,0.058
5117380011,1993,7,15,6,0.052
5117380011,1993,7,15,7,0.051
5117380011,1993,7,15,8,0.052
5117380011,1993,7,15,9,0.054
5117380011,1993,7,15,10,0.057
5117380011,1993,7,15,11,0.058
5117380011,1993,7,15,12,0.058
5117380011,1993,7,15,13,0.055
5117380011,1993,7,15,14,0.06
5117380011,1993,7,15,15,0.06
5117380011,1993,7,15,16,0.058
5117380011,1993,7,15,17,0.058
5117380011,1993,7,15,18,0.053
5117380011,1993,7,15,19,0.055
5117380011,1993,7,15,20,0.057
5117380011,1993,7,15,21,0.055
5117380011,1993,7,15,22,0.053
5117380011,1993,7,15,23,0.053
5117380011,1993,7,15,24,0.054
5117380011,1993,7,16,1,0.055
5117380011,1993,7,16,2,0.051
5117380011,1993,7,16,3,0.054
5117380011,1993,7,16,4,0.052
5117380011,1993,7,16,5,0.053
5117380011,1993,7,16,6,0.048
5117380011,1993,7,16,7,0.045
5117380011,1993,7,16,8,0.045
5117380011,1993,7,16,9,0.046
5117380011,1993,7,16,10,0.035
5117380011,1993,7,16,11,0.047
5117380011,1993,7,16,12,0.048
5117380011,1993,7,16,13,0.052
5117380011,1993,7,16,14,0.052
5117380011,1993,7,16,15,0.051
5117380011,1993,7,16,16,0.05
5117380011,1993,7,16,17,0.049
5117380011,1993,7,16,18,0.046
5117380011,1993,7,16,19,0.047
5117380011,1993,7,16,20,0.048
5117380011,1993,7,16,21,0.048
5117380011,1993,7,16,22,0.049
5117380011,1993,7,16,23,0.049
5117380011,1993,7,16,24,0.053
5117380011,1993,7,17,1,0.056
5117380011,1993,7,17,2,0.055
5117380011,1993,7,17,3,0.055
5117380011,1993,7,17,4,0.055
5117380011,1993,7,17,5,0.054
5117380011,1993,7,17,6,0.053
5117380011,1993,7,17,7,0.053
5117380011,1993,7,17,8,0.053
5117380011,1993,7,17,9,0.053
5117380011,1993,7,17,10,0.048
5117380011,1993,7,17,11,0.045
5117380011,1993,7,17,12,0.047
5117380011,1993,7,17,13,0.048
5117380011,1993,7,17,14,0.052
5117380011,1993,7,17,15,0.057
5117380011,1993,7,17,16,0.056
5117380011,1993,7,17,17,0.061
5117380011,1993,7,17,18,0.066
5117380011,1993,7,17,19,0.057
5117380011,1993,7,17,20,0.057
5117380011,1993,7,17,21,0.052
5117380011,1993,7,17,22,0.054
5117380011,1993,7,17,23,0.051
5117380011,1993,7,17,24,0.053
5117380011,1993,7,18,1,0.059
5117380011,1993,7,18,2,0.058
5117380011,1993,7,18,3,0.056
5117380011,1993,7,18,4,0.056
5117380011,1993,7,18,5,0.056
5117380011,1993,7,18,6,0.054
5117380011,1993,7,18,7,0.051
5117380011,1993,7,18,8,0.049
5117380011,1993,7,18,9,0.05
5117380011,1993,7,18,10,0.05
5117380011,1993,7,18,11,0.048
5117380011,1993,7,18,12,0.048
5117380011,1993,7,18,13,0.051
5117380011,1993,7,18,14,0.049
5117380011,1993,7,18,15,0.052
5117380011,1993,7,18,16,0.058
5117380011,1993,7,18,17,0.072
5117380011,1993,7,18,18,0.077
5117380011,1993,7,18,19,0.073
5117380011,1993,7,18,20,0.074
5117380011,1993,7,18,21,0.059
5117380011,1993,7,18,22,0.048
5117380011,1993,7,18,23,0.054
5117380011,1993,7,18,24,0.053
5117380011,1993,7,19,1,0.056
5117380011,1993,7,19,2,0.067
5117380011,1993,7,19,3,0.073
5117380011,1993,7,19,4,0.067
5117380011,1993,7,19,5,0.063
5117380011,1993,7,19,6,0.061
5117380011,1993,7,19,7,0.059
5117380011,1993,7,19,8,0.057
5117380011,1993,7,19,9,0.058
5117380011,1993,7,19,10,0.055
5117380011,1993,7,19,11,0.057
5117380011,1993,7,19,12,0.058
5117380011,1993,7,19,13,0.061
5117380011,1993,7,19,14,0.064
5117380011,1993,7,19,15,0.068
5117380011,1993,7,19,16,0.069
5117380011,1993,8,1,17,0.062
5117380011,1993,8,1,18,0.062
5117380011,1993,8,1,20,0.069
5117380011,1993,8,1,21,0.072
5117380011,1993,8,1,22,0.07
5117380011,1993,8,1,23,0.07
5117380011,1993,8,1,24,0.064
5117380011,1993,8,2,1,0.056
5117380011,1993,8,2,2,0.054
5117380011,1993,8,2,3,0.053
5117380011,1993,8,2,4,0.052
5117380011,1993,8,2,5,0.053
5117380011,1993,8,2,6,0.051
5117380011,1993,8,2,7,0.049
5117380011,1993,8,2,8,0.048
5117380011,1993,8,2,9,0.047
5117380011,1993,8,2,10,0.037
5117380011,1993,8,2,11,0.032
5117380011,1993,8,2,12,0.035
5117380011,1993,8,2,13,0.035
5117380011,1993,8,2,14,0.036
5117380011,1993,8,2,15,0.037
5117380011,1993,8,2,16,0.037
5117380011,1993,8,2,17,0.037